Weather History for Wrangell, AK

Change the Weather History Date:

Friday, November 11, 2011

  Actual Average Record
Temperature  
Mean Temperature 37 °F -  
Max Temperature 39 °F 41 °F 56 °F (1981)
Min Temperature 35 °F 32 °F 12 °F (1955)
Degree Days  
Heating Degree Days 28    
Moisture  
Dew Point 34 °F    
Average Humidity 88    
Maximum Humidity 93    
Minimum Humidity 81    
Precipitation  
Precipitation 0.00 in - - ()
Sea Level Pressure  
Sea Level Pressure 29.56 in    
Wind  
Wind Speed 6 mph (SE)    
Max Wind Speed 13 mph    
Max Gust Speed 21 mph    
Visibility 10 miles    
Events      
Averages and records for this station are not official NWS values.
T = Trace of Precipitation, MM = Missing Value Source: NWS Daily Summary

Daily Weather History Graph

Daily Weather History Graph

Search for Another Location

Airport:

Trip Planner

Search our weather history database for the weather conditions in past years. The results will help you decide how hot, cold, wet, or windy it might be!

Date:

Astronomy

Nov. 11, 2011 Rise Set
Actual Time 7:19 AM AKST 3:46 PM AKST
Civil Twilight 6:37 AM AKST 4:28 PM AKST
Nautical Twilight 5:51 AM AKST 5:14 PM AKST
Astronomical Twilight 5:07 AM AKST 5:58 PM AKST
Moon 3:59 PM AKST (11/11) 8:34 AM AKST (11/11)
Length of Visible Light 9h 51m
Length of Day
8h 26m
Full, 99% of the Moon is Illuminated
Nov 11
Full
Nov 18
Last Quarter
Nov 24
New
Dec 2
First Quarter
Dec 10
Full

Hourly Weather History & Observations

Time (AKST) Temp. Windchill Dew Point Humidity Pressure Visibility Wind Dir Wind Speed Gust Speed Precip Events Conditions
12:16 AM 37.4 °F 30.3 °F 33.8 °F 87% 29.37 in 10.0 mi ESE 10.4 mph 20.7 mph N/A   Overcast
12:36 AM 39.2 °F 31.6 °F 33.8 °F 81% 29.37 in 9.0 mi East 12.7 mph - N/A   Overcast
12:56 AM 39.2 °F 34.2 °F 33.8 °F 81% 29.38 in 10.0 mi SSE 6.9 mph 17.3 mph N/A   Overcast
1:16 AM 37.4 °F 30.8 °F 33.8 °F 87% 29.39 in 8.0 mi West 9.2 mph - N/A   Overcast
1:36 AM 37.4 °F 32.8 °F 33.8 °F 87% 29.40 in 10.0 mi West 5.8 mph - N/A   Overcast
1:56 AM 37.4 °F 32.1 °F 33.8 °F 87% 29.40 in 9.0 mi WSW 6.9 mph - N/A   Overcast
2:16 AM 37.4 °F 33.8 °F 33.8 °F 87% 29.41 in 10.0 mi WSW 4.6 mph - N/A   Overcast
2:36 AM 37.4 °F - 32.0 °F 81% 29.42 in 7.0 mi Calm Calm - N/A   Overcast
2:56 AM 35.6 °F 31.7 °F 32.0 °F 87% 29.43 in 10.0 mi SSW 4.6 mph - N/A   Overcast
3:16 AM 35.6 °F 31.7 °F 32.0 °F 87% 29.43 in 7.0 mi West 4.6 mph - N/A   Overcast
3:36 AM 35.6 °F 29.2 °F 33.8 °F 93% 29.43 in 8.0 mi ESE 8.1 mph - N/A   Overcast
3:56 AM 35.6 °F 30.7 °F 32.0 °F 87% 29.44 in 10.0 mi SE 5.8 mph - N/A   Overcast
4:16 AM 35.6 °F 31.7 °F 32.0 °F 87% 29.45 in 10.0 mi ESE 4.6 mph - N/A   Overcast
4:36 AM 35.6 °F 29.2 °F 32.0 °F 87% 29.45 in 10.0 mi SE 8.1 mph - N/A   Overcast
4:56 AM 35.6 °F 31.7 °F 33.8 °F 93% 29.46 in 10.0 mi SE 4.6 mph - N/A   Overcast
5:16 AM 35.6 °F - 33.8 °F 93% 29.47 in 10.0 mi Calm Calm - N/A   Overcast
5:36 AM 35.6 °F 32.8 °F 32.0 °F 87% 29.48 in 10.0 mi SSE 3.5 mph - N/A   Overcast
5:56 AM 35.6 °F 30.7 °F 33.8 °F 93% 29.49 in 10.0 mi SE 5.8 mph - N/A   Overcast
6:16 AM 35.6 °F 32.8 °F 33.8 °F 93% 29.50 in 10.0 mi SE 3.5 mph - N/A   Overcast
6:36 AM 35.6 °F 31.7 °F 33.8 °F 93% 29.51 in 10.0 mi ESE 4.6 mph - N/A   Overcast
6:56 AM 35.6 °F 32.8 °F 33.8 °F 93% 29.52 in 10.0 mi SE 3.5 mph - N/A   Overcast
7:16 AM 35.6 °F 31.7 °F 33.8 °F 93% 29.52 in 10.0 mi SSE 4.6 mph - N/A   Overcast
7:36 AM 37.4 °F 33.8 °F 33.8 °F 87% 29.54 in 10.0 mi West 4.6 mph - N/A   Overcast
7:56 AM 37.4 °F 32.1 °F 33.8 °F 87% 29.55 in 10.0 mi WNW 6.9 mph - N/A   Overcast
8:16 AM 37.4 °F 34.9 °F 33.8 °F 87% 29.56 in 10.0 mi WNW 3.5 mph - N/A   Overcast
8:36 AM 37.4 °F - 33.8 °F 87% 29.57 in 10.0 mi Calm Calm - N/A   Overcast
8:56 AM 39.2 °F 35.0 °F 33.8 °F 81% 29.58 in 10.0 mi WNW 5.8 mph - N/A   Mostly Cloudy
9:16 AM 39.2 °F - 33.8 °F 81% 29.59 in 10.0 mi Calm Calm - N/A   Mostly Cloudy
9:36 AM 37.4 °F 33.8 °F 35.6 °F 93% 29.60 in 10.0 mi SE 4.6 mph - N/A   Mostly Cloudy
9:56 AM 37.4 °F 33.8 °F 33.8 °F 87% 29.61 in 10.0 mi SE 4.6 mph - N/A   Mostly Cloudy
10:16 AM 37.4 °F 32.1 °F 33.8 °F 87% 29.62 in 10.0 mi ESE 6.9 mph - N/A   Mostly Cloudy
10:36 AM 37.4 °F 31.4 °F 33.8 °F 87% 29.62 in 10.0 mi SE 8.1 mph - N/A   Mostly Cloudy
10:56 AM 39.2 °F 35.0 °F 35.6 °F 87% 29.63 in 10.0 mi ESE 5.8 mph - N/A   Mostly Cloudy
11:16 AM 39.2 °F 35.9 °F 35.6 °F 87% 29.64 in 10.0 mi ESE 4.6 mph - N/A   Mostly Cloudy
11:36 AM 39.2 °F 35.9 °F 35.6 °F 87% 29.64 in 10.0 mi ESE 4.6 mph - N/A   Mostly Cloudy
11:56 AM 39.2 °F - 35.6 °F 87% 29.65 in 10.0 mi Calm Calm - N/A   Overcast
12:16 PM 39.2 °F 35.9 °F 35.6 °F 87% 29.65 in 10.0 mi SE 4.6 mph - N/A   Overcast
12:36 PM 39.2 °F - 35.6 °F 87% 29.66 in 10.0 mi Calm Calm - N/A   Overcast
12:56 PM 37.4 °F 32.8 °F 33.8 °F 87% 29.66 in 10.0 mi SW 5.8 mph - N/A   Overcast
1:16 PM 39.2 °F - 35.6 °F 87% 29.68 in 10.0 mi Calm Calm - N/A   Overcast
1:36 PM 39.2 °F - 33.8 °F 81% 29.68 in 10.0 mi Calm Calm - N/A   Overcast
1:56 PM 39.2 °F - 33.8 °F 81% 29.69 in 10.0 mi Calm Calm - N/A   Overcast
2:16 PM 39.2 °F 37.0 °F 35.6 °F 87% 29.68 in 10.0 mi South 3.5 mph - N/A   Overcast
2:36 PM 39.2 °F 35.9 °F 35.6 °F 87% 29.67 in 10.0 mi SSE 4.6 mph - N/A   Overcast
2:56 PM 37.4 °F 32.8 °F 35.6 °F 93% 29.67 in 10.0 mi SE 5.8 mph - N/A   Scattered Clouds
3:16 PM 37.4 °F 33.8 °F 33.8 °F 87% 29.67 in 10.0 mi SE 4.6 mph - N/A   Scattered Clouds
3:36 PM 37.4 °F 32.8 °F 33.8 °F 87% 29.67 in 10.0 mi SSE 5.8 mph - N/A   Scattered Clouds
3:56 PM 37.4 °F 32.1 °F 33.8 °F 87% 29.67 in 10.0 mi SE 6.9 mph - N/A   Overcast
4:16 PM 37.4 °F 32.1 °F 33.8 °F 87% 29.67 in 10.0 mi SSE 6.9 mph - N/A   Overcast
4:36 PM 37.4 °F 32.8 °F 33.8 °F 87% 29.67 in 10.0 mi ESE 5.8 mph - N/A   Overcast
4:56 PM 37.4 °F 32.1 °F 33.8 °F 87% 29.66 in 10.0 mi SE 6.9 mph - N/A   Overcast
5:16 PM 37.4 °F 32.8 °F 33.8 °F 87% 29.66 in 10.0 mi SE 5.8 mph - N/A   Overcast
5:36 PM 37.4 °F 30.8 °F 33.8 °F 87% 29.65 in 10.0 mi ESE 9.2 mph - N/A   Overcast
5:56 PM 37.4 °F 31.4 °F 35.6 °F 93% 29.65 in 10.0 mi ESE 8.1 mph - N/A   Overcast
6:16 PM 37.4 °F 30.3 °F 35.6 °F 93% 29.64 in 10.0 mi East 10.4 mph - N/A   Overcast
6:36 PM 37.4 °F 29.3 °F 33.8 °F 87% 29.63 in 10.0 mi ESE 12.7 mph - N/A   Overcast
6:56 PM 37.4 °F 28.9 °F 33.8 °F 87% 29.63 in 10.0 mi East 13.8 mph 18.4 mph N/A   Overcast
7:16 PM 37.4 °F 28.9 °F 33.8 °F 87% 29.61 in 10.0 mi ESE 13.8 mph 18.4 mph N/A   Overcast
7:36 PM 37.4 °F 28.5 °F 33.8 °F 87% 29.61 in 10.0 mi East 15.0 mph 19.6 mph N/A   Overcast
7:56 PM 39.2 °F 34.2 °F 33.8 °F 81% 29.60 in 10.0 mi South 6.9 mph - N/A   Overcast
8:16 PM 39.2 °F 32.0 °F 33.8 °F 81% 29.59 in 10.0 mi ESE 11.5 mph - N/A   Overcast
8:36 PM 37.4 °F 29.8 °F 33.8 °F 87% 29.58 in 10.0 mi East 11.5 mph - N/A   Overcast
8:56 PM 37.4 °F 28.5 °F 33.8 °F 87% 29.57 in 10.0 mi East 15.0 mph - N/A   Overcast
9:16 PM 37.4 °F - 33.8 °F 87% 29.57 in 10.0 mi Calm Calm - N/A   Overcast
9:36 PM 37.4 °F 32.8 °F 33.8 °F 87% 29.54 in 10.0 mi SE 5.8 mph - N/A   Overcast
9:56 PM 37.4 °F 28.9 °F 32.0 °F 81% 29.52 in 10.0 mi ESE 13.8 mph - N/A   Overcast
10:16 PM 37.4 °F - 32.0 °F 81% 29.51 in 10.0 mi Calm Calm - N/A   Overcast
10:36 PM 37.4 °F 31.4 °F 33.8 °F 87% 29.51 in 10.0 mi ESE 8.1 mph - N/A   Overcast
10:56 PM 37.4 °F 31.4 °F 32.0 °F 81% 29.49 in 10.0 mi ESE 8.1 mph - N/A   Overcast
11:16 PM 37.4 °F - 32.0 °F 81% 29.48 in 10.0 mi Calm Calm - N/A   Overcast
11:36 PM 37.4 °F - 32.0 °F 81% 29.47 in 10.0 mi Calm Calm - N/A   Overcast
11:56 PM 35.6 °F - 30.2 °F 81% 29.45 in 8.0 mi Calm Calm - N/A   Mostly Cloudy